Location: Noverd
(38.0910°N, 121.6877°W)
Time: 01:03:28
(UTC+00:00)

Meteor 2-16 Rocket - Pass Details

Date: 13 February 2026
Orbit: 941 x 956 km, 82.6° (Epoch: 10 March)

Event Time Altitude Azimuth Distance (km) Brightness Sun altitude
Rises 12:34:46 0° 353° (N) 3,617 7.5 -28.9°
Reaches altitude 10° 12:37:16 10° 355° (N) 2,670 6.8 -28.4°
Maximum altitude 12:43:23 81° 83° (E) 961 4.4 -27.2°
Drops below altitude 10° 12:49:29 10° 171° (S) 2,663 6.8 -26.0°
Sets 12:51:58 0° 172° (S) 3,606 7.5 -25.6°
